This is the latest recevied weather packets stored in our database for station/object SV9FBP. If no packets are shown the sender has not sent any weather packets the latest 10 day(s).
| Time | Temp. | Humidity | Pressure | Rain* | Wind** | Luminosity | Snow |
|---|---|---|---|---|---|---|---|
| 1777713927 | 15° C | 62% | 1011.8 hPa | 0 mm | - | - | - |
| 1777713025 | 14.44° C | 62% | 1012.2 hPa | 0 mm | - | - | - |
| 1777712123 | 15° C | 59% | 1012.1 hPa | 0 mm | - | - | - |
| 1777711221 | 15.56° C | 55% | 1012.1 hPa | 0 mm | - | - | - |
| 1777710319 | 15.56° C | 55% | 1012.1 hPa | 0 mm | - | - | - |
| 1777709416 | 15.56° C | 56% | 1011.5 hPa | 0 mm | - | - | - |
| 1777708514 | 15.56° C | 54% | 1011.4 hPa | 0 mm | - | - | - |
| 1777707612 | 15.56° C | 52% | 1011.6 hPa | 0 mm | - | - | - |
| 1777706711 | 15.56° C | 55% | 1011.4 hPa | 0 mm | - | - | - |
| 1777705809 | 16.11° C | 56% | 1011.5 hPa | 0 mm | - | - | - |
| 1777704906 | 16.67° C | 60% | 1011.1 hPa | 0 mm | - | - | - |
| 1777704004 | 16.11° C | 61% | 1011.1 hPa | 0 mm | - | - | - |
| 1777703102 | 16.11° C | 62% | 1011 hPa | 0 mm | - | - | - |
| 1777702199 | 16.11° C | 64% | 1010.8 hPa | 0 mm | - | - | - |
| 1777701300 | 15.56° C | 66% | 1010.7 hPa | 0 mm | - | - | - |
| 1777700395 | 15.56° C | 69% | 1010.4 hPa | 0 mm | - | - | - |
| 1777699493 | 15.56° C | 70% | 1010.3 hPa | 0 mm | - | - | - |
| 1777698591 | 15.56° C | 71% | 1010.2 hPa | 0 mm | - | - | - |
| 1777697689 | 15° C | 71% | 1010.3 hPa | 0 mm | - | - | - |
| 1777696787 | 15° C | 72% | 1010.4 hPa | 0 mm | - | - | - |
| 1777695885 | 15° C | 72% | 1010.4 hPa | 0 mm | - | - | - |
| 1777694983 | 15° C | 72% | 1010.2 hPa | 0 mm | - | - | - |
| 1777694081 | 15° C | 72% | 1010.2 hPa | 0 mm | - | - | - |
| 1777693178 | 15° C | 71% | 1010 hPa | 0 mm | - | - | - |
| 1777692276 | 15.56° C | 71% | 1010.2 hPa | 0 mm | - | - | - |
* Rain latest hour (hover to see other rain measurements)
** Current wind speed in m/s (hover to see current wind gust speed)